Погода в Яровом

Россия / Тюменская область     55°59′29″N   67°34′48″E
темп.,
°C
ветер,
м/с
пор.,
м/с
влажн.,
%
обл.,
%
осадки,
мм/ч
давл.,
гПа
погр.,
м
6 марта, сб
сб623:00−2ююз61297100 1.1 999708
02:00−1зюз71297100 2.4 997707
05:00−6з6129498 2.4 1000446
08:00−11з7149165 0.0 1004367
11:00−10з7128755 0.0 1007476
14:00−8з711830 0.0 1008762
17:00−8зюз5118711 0.0 1009468
20:00−12юз5119475 0.0 1010214
7 марта, вс
вс723:00−13юз5129252 0.0 1011232
02:00−12зюз5109365 0.0 1011265
05:00−14юз349771 0.1 101362
08:00−16юз3398100 0.0 101335
11:00−12ю2394100 0.1 1014188
14:00−9ююв3493100 0.1 1012316
17:00−8вюв4695100 0.7 1008342
20:00−9в5995100 1.7 1004363
8 марта, пн
пн823:00−9св61095100 3.6 1000408
02:00−9с71194100 2.8 998472
05:00−10сз81392100 3.7 1000520
08:00−14сз71392100 0.1 1004368
11:00−14зсз6109294 0.1 1008381
14:00−12з588985 0.0 1011531
17:00−12юз589192 0.0 1012521
20:00−14ююз51191100 0.0 1013345
9 марта, вт
вт923:00−13ююз5129498 0.1 1012434
02:00−12ююз6129497 0.1 1012421
05:00−12ююз6129498 0.2 1012339
08:00−13ю81495100 0.0 1010351
11:00−9ююз91492100 0.4 1009626
14:00−6ююз81390100 0.1 1008690
17:00−7ююз81391100 0.3 1006657
20:00−6ююз81494100 0.4 1004754
10 марта, ср
ср1023:00−6юз71495100 1.6 1004786
02:00−9зсз5119267 1.0 1006244
05:00−14зсз449859 1.0 100967
08:00−16сз229596 0.0 101020
11:00−12зюз118898 0.0 1010184
14:00−9ю1288100 0.0 1009306
17:00−10ююв1294100 0.0 100859
20:00−12ю2295100 0.0 100721